• In Netherlands
  • List of Countries
  • For 7 days
  • Water Temperature
  • Satellite Maps
  • Weather Map
  • Weather Widgets
  • user-avatar
    Login

    Hourly Weather Giumri

    Today, 30 April, Sunday

    Time Temperature Precipitation Wind Pressure Humidity
    00:00 +8°C° 0.4 mm 1 mps 633 mmHg 95%
    01:00 +8°C° 0.3 mm 1 mps 633 mmHg 95%
    02:00 +8°C° 0.3 mm 1 mps 633 mmHg 96%
    03:00 +7°C° 0 mm 1 mps 632 mmHg 97%
    04:00 +6°C° 0.1 mm 0 mps 632 mmHg 96%
    05:00 +7°C° 0.1 mm 0 mps 632 mmHg 95%
    06:00 +7°C° 0.1 mm 0 mps 633 mmHg 94%
    07:00 +10°C° 0.1 mm 1 mps 633 mmHg 87%
    08:00 +11°C° 0.1 mm 1 mps 634 mmHg 79%
    09:00 +13°C° 0 mm 2 mps 634 mmHg 71%
    10:00 +14°C° 0.4 mm 2 mps 634 mmHg 68%
    11:00 +15°C° 0.4 mm 2 mps 634 mmHg 65%
    12:00 +16°C° 0.4 mm 2 mps 635 mmHg 62%
    13:00 +16°C° 0.6 mm 3 mps 634 mmHg 60%
    14:00 +16°C° 0.6 mm 3 mps 634 mmHg 58%
    15:00 +17°C° 0.6 mm 3 mps 634 mmHg 56%
    16:00 +16°C° 0.4 mm 2 mps 634 mmHg 60%
    17:00 +15°C° 0.4 mm 2 mps 634 mmHg 64%
    18:00 +14°C° 0.4 mm 1 mps 634 mmHg 67%
    19:00 +12°C° 0.2 mm 1 mps 633 mmHg 71%
    20:00 +10°C° 0.2 mm 1 mps 633 mmHg 76%
    21:00 +8°C° 0.2 mm 1 mps 632 mmHg 80%
    22:00 +8°C° 0 mm 1 mps 632 mmHg 80%
    23:00 +7°C° 0 mm 1 mps 632 mmHg 81%

    Tomorrow, 1 May, Monday

    Time Temperature Precipitation Wind Pressure Humidity
    00:00 +7°C° 0 mm 1 mps 632 mmHg 81%
    01:00 +6°C° 0 mm 1 mps 632 mmHg 81%
    02:00 +6°C° 0 mm 1 mps 632 mmHg 81%
    03:00 +6°C° 0 mm 1 mps 632 mmHg 81%
    04:00 +6°C° 0 mm 1 mps 632 mmHg 79%
    05:00 +7°C° 0 mm 1 mps 632 mmHg 77%
    06:00 +8°C° 0 mm 1 mps 633 mmHg 75%
    07:00 +10°C° 0 mm 1 mps 633 mmHg 69%
    08:00 +13°C° 0 mm 1 mps 634 mmHg 62%
    09:00 +15°C° 0 mm 2 mps 635 mmHg 55%
    10:00 +16°C° 0 mm 2 mps 635 mmHg 51%
    11:00 +17°C° 0 mm 2 mps 635 mmHg 47%
    12:00 +18°C° 0 mm 3 mps 635 mmHg 43%
    13:00 +19°C° 0 mm 2 mps 635 mmHg 42%
    14:00 +19°C° 0 mm 2 mps 635 mmHg 42%
    15:00 +19°C° 0 mm 2 mps 635 mmHg 41%
    16:00 +18°C° 0 mm 2 mps 634 mmHg 49%
    17:00 +17°C° 0 mm 2 mps 634 mmHg 56%
    18:00 +15°C° 0 mm 1 mps 633 mmHg 64%
    19:00 +14°C° 0 mm 1 mps 633 mmHg 68%
    20:00 +12°C° 0 mm 1 mps 633 mmHg 72%
    21:00 +11°C° 0 mm 1 mps 633 mmHg 76%
    22:00 +10°C° 0 mm 1 mps 633 mmHg 79%
    23:00 +10°C° 0 mm 1 mps 633 mmHg 83%

    Day after tomorrow, 2 May, Tuesday

    Time Temperature Precipitation Wind Pressure Humidity
    00:00 +9°C° 0 mm 1 mps 633 mmHg 86%
    01:00 +9°C° 0.2 mm 1 mps 633 mmHg 87%
    02:00 +9°C° 0.2 mm 1 mps 633 mmHg 88%
    03:00 +9°C° 0.2 mm 1 mps 633 mmHg 89%
    04:00 +10°C° 0.4 mm 1 mps 633 mmHg 89%
    05:00 +10°C° 0.4 mm 1 mps 633 mmHg 89%
    06:00 +10°C° 0.4 mm 1 mps 633 mmHg 90%
    07:00 +12°C° 0.2 mm 1 mps 634 mmHg 82%
    08:00 +13°C° 0.2 mm 1 mps 634 mmHg 75%
    09:00 +15°C° 0.2 mm 2 mps 634 mmHg 67%
    10:00 +16°C° 0.2 mm 2 mps 634 mmHg 64%
    11:00 +17°C° 0.2 mm 2 mps 635 mmHg 60%
    12:00 +18°C° 0.2 mm 3 mps 635 mmHg 57%
    13:00 +18°C° 0.3 mm 3 mps 634 mmHg 57%
    14:00 +18°C° 0.3 mm 3 mps 634 mmHg 58%
    15:00 +18°C° 0.3 mm 3 mps 633 mmHg 58%
    16:00 +17°C° 0.3 mm 2 mps 633 mmHg 64%
    17:00 +16°C° 0.3 mm 2 mps 633 mmHg 71%
    18:00 +15°C° 0.3 mm 2 mps 632 mmHg 78%
    19:00 +14°C° 0.4 mm 2 mps 632 mmHg 82%
    20:00 +12°C° 0.4 mm 1 mps 632 mmHg 87%
    21:00 +11°C° 0.4 mm 1 mps 632 mmHg 92%
    22:00 +11°C° 1.7 mm 1 mps 632 mmHg 93%
    23:00 +11°C° 1.7 mm 1 mps 632 mmHg 94%

    3 May, Wednesday

    Time Temperature Precipitation Wind Pressure Humidity
    00:00 +11°C° 1.7 mm 1 mps 632 mmHg 96%
    01:00 +10°C° 2.6 mm 1 mps 632 mmHg 96%
    02:00 +9°C° 2.6 mm 0 mps 631 mmHg 96%
    03:00 +9°C° 2.6 mm 0 mps 631 mmHg 96%
    04:00 +9°C° 0.4 mm 0 mps 631 mmHg 96%
    05:00 +9°C° 0.4 mm 0 mps 631 mmHg 95%
    06:00 +9°C° 0.4 mm 0 mps 631 mmHg 95%
    07:00 +11°C° 0.2 mm 1 mps 632 mmHg 90%
    08:00 +12°C° 0.2 mm 2 mps 632 mmHg 85%
    09:00 +14°C° 0.2 mm 2 mps 632 mmHg 80%
    10:00 +15°C° 0.3 mm 2 mps 632 mmHg 75%
    11:00 +16°C° 0.3 mm 3 mps 633 mmHg 69%
    12:00 +17°C° 0.3 mm 3 mps 633 mmHg 63%
    13:00 +17°C° 0.8 mm 3 mps 633 mmHg 62%
    14:00 +17°C° 0.8 mm 3 mps 632 mmHg 60%
    15:00 +17°C° 0.8 mm 3 mps 632 mmHg 58%
    16:00 +16°C° 1.2 mm 3 mps 632 mmHg 65%
    17:00 +15°C° 1.2 mm 2 mps 632 mmHg 71%
    18:00 +14°C° 1.2 mm 2 mps 632 mmHg 77%
    19:00 +13°C° 0.8 mm 1 mps 631 mmHg 82%
    20:00 +11°C° 0.8 mm 1 mps 631 mmHg 86%
    21:00 +10°C° 0.8 mm 1 mps 631 mmHg 90%
    22:00 +9°C° 0.2 mm 1 mps 631 mmHg 90%
    23:00 +9°C° 0.2 mm 1 mps 630 mmHg 90%

    4 May, Thursday

    Time Temperature Precipitation Wind Pressure Humidity
    00:00 +7°C° 0.2 mm 0 mps 630 mmHg 91%
    01:00 +7°C° 0 mm 0 mps 630 mmHg 91%
    02:00 +6°C° 0 mm 0 mps 630 mmHg 92%
    03:00 +6°C° 0 mm 0 mps 629 mmHg 92%
    04:00 +7°C° 0 mm 0 mps 630 mmHg 91%
    05:00 +7°C° 0 mm 0 mps 630 mmHg 90%
    06:00 +9°C° 0 mm 1 mps 631 mmHg 89%
    07:00 +11°C° 0 mm 1 mps 631 mmHg 80%
    08:00 +13°C° 0 mm 1 mps 632 mmHg 72%
    09:00 +15°C° 0 mm 1 mps 633 mmHg 63%
    10:00 +16°C° 0.2 mm 1 mps 633 mmHg 60%
    11:00 +16°C° 0.2 mm 1 mps 633 mmHg 56%
    12:00 +17°C° 0.2 mm 2 mps 633 mmHg 53%
    13:00 +17°C° 0.5 mm 2 mps 633 mmHg 54%
    14:00 +18°C° 0.5 mm 1 mps 632 mmHg 56%
    15:00 +19°C° 0.5 mm 1 mps 632 mmHg 57%
    16:00 +18°C° 0.7 mm 1 mps 632 mmHg 63%
    17:00 +16°C° 0.7 mm 1 mps 632 mmHg 69%
    18:00 +15°C° 0.7 mm 1 mps 632 mmHg 75%
    19:00 +13°C° 0.5 mm 1 mps 632 mmHg 79%
    20:00 +11°C° 0.5 mm 1 mps 631 mmHg 83%
    21:00 +9°C° 0.5 mm 1 mps 631 mmHg 87%
    22:00 +9°C° 0.2 mm 1 mps 631 mmHg 88%
    23:00 +9°C° 0.2 mm 1 mps 631 mmHg 88%

    5 May, Friday

    Time Temperature Precipitation Wind Pressure Humidity
    00:00 +9°C° 0.2 mm 1 mps 631 mmHg 89%
    01:00 +7°C° 0.2 mm 0 mps 631 mmHg 90%
    02:00 +7°C° 0.2 mm 0 mps 631 mmHg 90%
    03:00 +7°C° 0.2 mm 0 mps 631 mmHg 91%
    04:00 +8°C° 0.2 mm 0 mps 631 mmHg 89%
    05:00 +8°C° 0.2 mm 0 mps 631 mmHg 87%
    06:00 +9°C° 0.2 mm 0 mps 632 mmHg 85%
    07:00 +11°C° 0.2 mm 1 mps 632 mmHg 80%
    08:00 +13°C° 0.2 mm 1 mps 633 mmHg 76%
    09:00 +14°C° 0.2 mm 1 mps 633 mmHg 71%
    10:00 +15°C° 0.5 mm 2 mps 633 mmHg 69%
    11:00 +16°C° 0.5 mm 2 mps 633 mmHg 67%
    12:00 +17°C° 0.5 mm 2 mps 633 mmHg 66%
    13:00 +17°C° 1.2 mm 2 mps 632 mmHg 66%
    14:00 +17°C° 1.2 mm 2 mps 632 mmHg 66%
    15:00 +17°C° 1.2 mm 2 mps 632 mmHg 66%
    16:00 +16°C° 1.6 mm 2 mps 632 mmHg 71%
    17:00 +16°C° 1.6 mm 1 mps 632 mmHg 77%
    18:00 +15°C° 1.6 mm 1 mps 631 mmHg 82%
    19:00 +13°C° 1.2 mm 1 mps 632 mmHg 85%
    20:00 +12°C° 1.2 mm 1 mps 632 mmHg 88%
    21:00 +11°C° 1.2 mm 1 mps 632 mmHg 92%
    22:00 +10°C° 0.3 mm 1 mps 631 mmHg 92%
    23:00 +10°C° 0.3 mm 1 mps 631 mmHg 93%
    Show more